Theta_e
317 318 321 319 320 321 323 328 325 324 325 322 320 318 316 318 317 318 321 319 317 319 317 316 315 314 316 316 315 316 318 320 322 321 322 326 325 323 324 322 324 323 329 335 337 339 339 341 343 343 344 343 343 343 343 343 342 342 342 342 341 340 340 339 339 336 334 335 336 336 335 335 337 337 338 338 338 339 339 339 338 339 339 338 337 333 328 327 326 325 325 323 323 322 322 322 322
318 319 321 319 319 319 324 327 327 326 325 317 316 318 315 316 318 321 323 321 319 316 315 316 316 315 316 316 314 316 317 317 318 318 318 320 322 324 323 322 324 323 328 334 336 338 339 340 342 343 343 343 343 343 343 342 342 342 341 342 341 340 340 339 338 337 335 336 337 335 334 335 336 336 337 338 338 338 338 338 338 339 338 338 338 334 330 329 326 325 324 323 322 322 323 323 323
318 321 320 318 320 321 329 328 323 326 323 316 316 321 316 315 321 323 323 321 318 314 315 316 316 317 316 318 317 317 319 317 316 318 320 318 320 324 322 323 324 324 327 332 335 337 338 339 341 342 342 342 343 342 342 341 342 342 342 342 341 341 340 339 338 336 335 336 336 334 334 334 334 336 336 337 337 338 338 337 338 338 338 338 338 337 335 332 329 327 325 325 325 325 326 325 326
319 322 318 319 322 326 344 336 328 329 321 318 316 321 323 320 322 322 322 319 316 314 317 317 317 315 315 320 317 315 319 318 315 318 324 320 320 322 322 324 324 324 327 331 334 334 336 338 339 341 342 342 342 343 341 340 342 341 342 342 340 341 340 339 337 334 334 334 334 334 335 334 334 334 336 336 335 336 336 335 336 337 337 338 338 338 337 335 333 331 330 329 329 329 329 328 329
319 320 316 318 324 326 338 330 327 328 318 321 316 316 325 323 322 322 322 318 315 317 318 318 319 314 313 319 317 317 319 318 315 314 319 321 321 321 322 324 324 324 327 330 333 334 335 336 338 340 341 341 341 342 341 341 342 341 342 342 341 341 340 339 336 335 336 335 334 334 334 334 335 334 335 335 334 334 333 332 334 336 337 337 337 337 336 336 334 333 332 330 329 328 326 326 329
318 318 316 316 318 317 324 322 321 323 319 323 317 316 321 320 320 320 319 318 316 316 315 317 318 316 316 317 315 317 318 317 317 316 317 321 322 322 323 323 324 325 327 330 332 333 334 336 337 338 341 341 341 342 341 342 341 342 342 341 341 341 340 339 336 335 336 336 336 334 334 334 334 335 334 333 333 333 332 332 334 335 336 336 336 336 335 335 333 332 330 328 328 326 323 323 325
316 317 321 320 319 319 328 326 322 322 318 317 316 318 318 317 316 315 318 318 318 315 315 317 315 316 317 315 314 314 314 314 317 319 319 320 322 322 323 323 324 325 326 329 331 333 333 335 336 337 340 340 341 341 342 341 341 342 341 341 341 340 340 338 336 337 337 336 336 335 334 333 334 336 334 332 332 332 331 332 333 334 336 336 336 335 334 333 332 331 330 329 329 328 326 326 324
317 319 323 329 331 330 334 327 323 322 316 313 315 318 319 319 314 315 321 318 317 316 318 319 315 318 316 314 317 316 312 315 318 319 319 320 322 323 323 323 323 325 327 329 331 333 333 335 336 337 339 341 341 341 342 341 341 341 340 340 340 340 339 338 336 337 338 337 337 335 334 333 336 337 336 334 331 331 331 332 333 334 335 335 336 334 332 331 331 332 330 329 329 329 328 328 326
317 318 323 330 332 331 331 323 319 319 319 318 317 319 320 319 315 315 320 318 317 317 319 318 315 317 316 316 320 317 314 317 318 320 320 321 323 323 323 323 324 324 326 329 331 333 332 334 336 337 339 341 341 341 341 341 340 340 341 340 340 340 339 339 337 336 338 337 336 335 335 334 337 337 336 336 332 332 332 334 334 334 335 335 334 332 331 331 332 331 329 329 329 328 327 327 327
317 317 323 330 330 326 323 319 319 319 320 320 318 320 319 315 315 316 318 317 315 317 317 314 315 318 317 318 320 316 315 316 317 322 323 322 324 324 323 323 325 326 327 328 331 333 333 334 335 338 339 340 341 340 341 340 340 339 340 341 340 340 339 338 336 336 337 337 335 335 335 334 337 337 336 336 334 333 332 333 334 334 334 334 332 331 331 330 330 330 328 327 326 326 325 325 326
323 325 327 331 327 321 318 319 323 325 323 321 318 319 318 314 314 317 317 315 314 316 316 313 316 319 318 319 321 316 314 316 318 322 322 322 323 324 324 324 325 327 328 329 331 334 335 335 334 336 338 340 340 340 340 340 340 339 340 341 340 339 339 338 336 335 336 337 335 335 336 335 336 337 337 337 336 334 333 333 334 334 332 331 331 331 330 329 329 328 326 325 324 325 323 323 322
323 330 337 335 323 318 319 321 324 330 331 322 317 316 315 313 315 316 316 316 316 317 316 315 315 315 318 320 318 313 314 318 320 321 321 322 322 323 324 325 327 327 329 330 331 333 335 336 335 335 337 339 339 340 340 340 339 339 340 341 340 338 338 338 336 335 335 337 335 334 336 336 336 336 337 336 336 335 334 334 333 332 330 330 331 331 331 329 329 328 327 325 325 325 322 323 318
329 331 336 326 317 320 320 319 321 327 328 319 315 314 310 312 316 315 316 317 315 317 315 313 313 313 316 318 317 315 313 316 318 320 321 323 323 323 325 326 328 328 329 331 332 333 335 336 335 335 336 338 339 339 340 339 339 339 340 340 340 338 338 339 337 334 335 335 334 333 335 337 337 336 336 336 336 336 335 335 333 332 331 331 331 331 331 329 329 327 326 325 325 324 323 321 311
332 332 331 320 314 323 322 317 320 321 318 317 317 315 313 313 316 315 314 317 316 316 312 309 311 314 315 315 321 320 312 313 317 319 320 324 326 326 327 328 329 330 331 332 333 333 334 335 336 335 335 336 338 338 339 339 339 339 339 339 339 339 338 339 337 334 334 335 334 333 333 336 337 336 336 336 336 336 336 335 333 332 332 332 332 331 330 329 328 327 325 324 324 322 321 319 305
325 329 329 323 318 321 318 318 324 323 316 317 315 313 316 313 313 316 313 315 316 312 309 308 309 314 314 313 319 316 310 311 314 317 319 324 327 328 328 328 329 329 331 332 333 334 334 335 335 336 335 336 337 338 339 339 339 338 338 339 339 339 338 339 336 333 334 335 335 334 333 334 336 336 335 335 336 336 336 335 334 333 333 332 332 331 330 329 328 327 325 323 322 321 320 317 302
319 327 328 321 317 315 314 318 322 321 317 318 315 311 317 313 311 315 311 311 314 311 311 313 310 312 315 313 311 308 310 314 314 317 319 322 326 327 327 327 328 328 329 330 332 334 335 336 335 336 336 336 336 336 337 338 339 338 338 338 338 338 339 339 336 333 334 336 335 335 334 334 335 335 335 335 336 336 335 335 334 333 333 332 331 330 329 329 328 326 325 323 322 320 318 315 304
319 330 332 318 315 316 315 320 320 318 320 322 318 313 315 316 312 311 307 308 314 314 315 315 309 309 312 309 306 305 311 316 317 320 321 321 322 323 324 324 324 325 327 327 329 331 334 336 336 337 337 336 336 335 336 337 338 337 337 337 337 338 337 339 337 335 334 335 336 335 334 333 334 335 335 335 335 335 335 335 334 334 333 332 331 329 329 328 327 325 325 324 323 321 317 311 304
330 334 326 314 315 317 317 323 321 317 317 318 318 314 314 317 315 311 309 313 316 315 315 314 311 310 308 305 305 306 309 312 315 317 316 315 315 315 316 316 317 319 322 325 327 328 330 333 336 337 337 337 336 336 336 336 337 337 337 336 336 337 336 337 337 336 335 334 335 335 334 332 333 334 334 335 334 334 334 333 333 333 333 332 331 329 329 328 326 325 324 324 324 323 319 310 302
334 330 317 319 324 319 317 324 321 317 315 317 318 314 313 314 313 311 312 317 317 314 315 315 316 314 307 305 306 306 307 308 309 309 308 307 307 307 308 310 312 312 315 319 323 326 327 329 332 335 337 337 337 336 335 335 336 336 338 338 336 335 335 335 336 337 336 334 333 334 334 332 333 334 334 334 334 333 333 332 332 333 332 331 330 330 329 328 326 324 323 324 324 323 322 316 305
326 323 320 327 329 321 318 322 320 317 314 317 318 312 313 314 312 311 312 315 315 314 315 314 316 314 307 303 304 305 305 305 305 305 304 303 304 303 304 307 309 310 311 312 314 319 324 326 328 331 334 336 337 337 335 334 335 334 337 340 339 336 334 334 334 336 336 335 335 334 334 333 333 334 334 334 333 333 333 332 331 332 332 332 330 329 329 328 326 324 323 324 324 324 323 321 314
317 320 325 325 321 319 319 321 321 318 314 315 317 313 314 313 311 312 312 314 314 314 313 312 311 311 308 304 302 303 302 302 302 302 302 302 303 303 304 306 308 310 312 312 312 313 316 321 324 327 330 334 336 336 336 335 334 334 334 336 339 339 338 336 333 333 333 334 334 334 334 334 333 333 334 333 333 333 333 334 332 331 332 332 330 329 329 328 326 323 323 324 324 324 322 322 321
316 318 323 324 318 317 319 321 321 318 313 313 317 315 313 311 311 314 313 313 313 309 308 309 307 306 306 304 302 302 301 302 301 301 301 301 302 303 305 307 310 312 314 315 314 313 312 314 318 323 327 331 333 335 336 335 334 334 334 333 334 336 338 338 336 334 333 332 331 333 334 335 334 333 333 333 333 332 331 332 331 331 331 331 330 329 329 328 327 324 324 324 324 324 323 322 322
317 318 319 322 319 317 318 319 318 315 314 315 316 312 310 312 312 312 312 312 308 303 303 305 303 302 302 301 301 301 300 301 300 300 300 300 301 301 302 305 308 311 315 317 316 315 313 312 313 317 324 328 330 332 334 334 333 334 334 334 334 334 335 335 335 335 334 334 332 332 333 334 333 332 334 334 333 331 330 330 331 331 331 330 330 329 329 328 328 326 324 324 324 325 324 323 322
319 320 320 319 316 318 320 318 316 315 314 315 313 309 310 314 312 310 309 306 302 301 302 302 301 301 301 300 300 300 300 300 299 300 300 300 300 301 301 303 305 307 311 315 317 317 315 312 312 313 319 325 327 328 331 332 332 333 334 335 335 336 336 333 333 333 333 335 335 333 332 334 333 330 332 333 334 331 328 330 330 330 330 331 331 330 330 329 328 326 324 324 325 325 323 323 322
320 320 322 318 316 321 320 316 316 315 313 310 309 311 312 312 311 310 308 303 300 302 302 301 300 300 300 299 299 299 299 299 299 299 299 299 300 301 303 305 306 307 308 311 315 317 317 314 312 313 316 321 326 327 329 331 331 333 334 333 333 334 334 333 332 330 332 335 334 334 334 335 334 331 330 330 333 330 328 329 328 328 330 331 330 330 330 329 327 325 325 325 326 325 323 323 322
319 320 320 317 315 317 315 315 316 315 313 309 310 314 312 308 309 309 306 301 301 302 301 300 300 299 299 298 298 299 298 298 298 298 298 299 300 302 304 306 307 308 307 310 314 317 318 317 314 314 316 319 325 327 328 331 332 333 333 334 334 333 331 330 331 330 333 334 330 331 333 334 334 333 332 330 330 328 328 329 328 328 329 329 330 330 330 330 328 326 326 326 326 324 323 323 322
316 318 318 316 313 313 314 314 315 313 312 310 311 314 311 307 310 311 305 301 303 305 302 300 299 299 298 298 298 298 298 298 297 297 297 298 299 299 301 304 307 307 308 311 315 317 319 320 318 317 317 318 324 329 329 331 333 334 333 334 334 334 332 330 331 331 332 333 331 331 332 332 334 334 334 332 331 330 329 328 328 327 326 326 328 329 329 329 328 328 327 327 325 324 324 323 322
313 314 315 317 315 314 314 313 311 311 311 311 310 313 312 309 311 309 304 301 304 308 305 299 300 299 298 298 298 298 298 297 297 297 297 297 297 298 299 301 303 307 308 312 317 319 320 322 322 321 320 319 323 329 330 331 333 333 332 334 332 330 332 331 330 330 329 330 330 331 331 331 332 332 333 333 333 333 331 329 329 327 326 326 326 327 329 329 329 328 328 326 324 324 324 322 322
312 312 314 318 319 317 314 311 310 310 312 311 311 314 316 312 310 305 302 303 305 308 306 301 300 298 298 298 297 297 297 296 296 296 296 296 297 297 298 299 301 305 307 312 317 320 321 322 322 323 323 322 323 328 331 330 331 331 330 332 331 328 328 328 327 328 328 328 329 329 330 330 331 331 331 332 332 331 330 330 330 328 329 329 328 328 329 328 328 328 326 325 325 325 323 322 322
313 312 314 316 319 321 313 309 311 311 311 310 311 318 321 313 306 304 302 303 310 312 305 300 300 298 298 297 297 297 296 296 296 295 295 296 297 297 298 300 301 303 306 311 316 319 322 323 324 325 325 326 325 328 330 329 329 329 327 328 329 327 327 327 326 327 328 328 328 328 329 329 329 329 330 330 330 330 329 330 330 329 329 329 327 327 327 327 327 327 325 325 325 325 324 323 323
315 312 318 319 316 324 320 311 314 313 310 309 312 318 321 312 305 304 301 302 312 312 302 299 299 298 297 297 296 296 296 296 295 295 295 296 296 297 298 299 301 304 307 310 313 317 321 323 324 325 326 327 327 328 328 328 327 326 326 325 325 325 325 324 324 325 325 325 326 326 326 326 327 328 328 328 328 327 327 327 326 326 326 326 326 325 325 325 325 324 324 324 324 324 324 323 322
321 314 324 325 316 325 324 312 313 314 310 310 313 318 320 312 304 304 301 302 311 309 301 299 299 298 297 296 296 295 295 295 294 294 295 295 296 296 297 299 300 303 306 310 313 316 320 322 324 325 325 326 326 327 327 327 326 324 323 322 321 322 321 320 320 321 321 322 323 323 323 324 324 325 325 325 325 324 324 324 323 323 323 324 324 323 322 322 322 322 322 322 321 321 321 320 320
324 317 324 328 318 320 319 312 313 313 310 311 313 317 319 311 304 303 302 301 307 307 301 299 298 297 296 296 295 295 295 294 294 294 294 295 295 296 297 298 300 302 305 309 313 317 318 320 322 321 321 323 324 324 324 324 324 323 322 321 320 320 318 317 317 318 318 318 320 319 319 320 320 321 322 321 322 322 322 322 321 321 321 321 321 321 321 321 321 321 320 320 320 319 319 318 317
326 317 318 323 318 316 318 316 314 312 313 313 313 314 316 313 306 304 302 300 306 306 301 299 298 297 296 296 295 294 294 293 293 293 293 294 295 296 297 298 299 302 305 308 311 314 316 318 320 319 317 318 320 320 321 321 320 319 319 318 318 316 314 314 314 314 314 314 314 314 315 317 317 317 318 318 319 320 319 320 320 319 319 319 319 319 318 318 318 318 318 318 317 317 317 317 317
331 322 319 322 317 314 317 317 314 313 315 316 315 315 316 314 310 305 301 300 304 303 299 298 297 296 296 295 295 294 293 293 292 292 292 293 294 295 296 298 299 301 304 307 309 312 314 316 318 319 317 316 315 314 315 316 316 314 314 315 313 310 309 310 310 310 310 309 309 310 312 314 313 313 314 315 315 316 316 316 316 316 317 317 316 316 315 315 316 316 315 315 315 315 315 314 315
327 326 325 325 320 317 318 317 314 312 313 316 316 315 316 314 313 307 301 300 301 301 299 299 297 296 296 295 295 294 293 293 292 292 292 292 293 295 296 297 298 301 303 305 308 311 312 314 317 317 315 315 314 314 313 313 313 310 310 311 308 304 304 306 306 306 306 306 305 307 309 309 309 309 310 311 311 311 312 312 312 312 313 314 314 314 314 314 313 314 314 313 313 313 312 312 312
320 321 322 322 320 318 317 316 314 311 312 317 314 314 315 314 314 306 301 303 302 301 301 299 297 296 296 295 295 294 293 293 292 292 292 292 293 294 295 297 298 300 302 304 306 308 308 311 314 313 313 316 317 315 314 312 310 308 307 305 302 301 302 303 302 303 302 302 303 304 304 305 305 306 306 307 307 307 307 307 308 308 308 309 310 310 310 310 310 311 311 311 311 311 310 309 309
315 316 317 318 318 317 315 313 314 312 313 316 313 313 315 315 312 304 302 306 304 301 301 299 297 296 295 295 294 294 294 292 292 291 291 292 292 293 294 296 298 298 299 301 302 303 305 309 311 310 313 317 316 314 314 311 307 307 305 302 301 301 301 301 300 300 300 300 301 301 301 302 302 303 303 303 304 304 304 304 304 304 304 305 305 305 305 306 306 307 307 308 308 308 308 306 306
313 314 314 316 315 316 317 313 312 312 312 317 315 313 315 314 306 301 301 303 299 297 299 298 297 296 295 295 294 293 293 293 292 291 290 291 291 292 293 294 295 295 296 298 300 302 304 306 306 308 311 312 312 312 312 309 306 306 305 302 301 300 298 298 298 297 298 299 299 299 299 300 300 300 300 301 301 301 301 301 301 302 302 302 302 302 302 303 303 304 304 305 305 305 305 303 303
313 314 313 315 315 317 321 316 313 312 310 314 315 312 314 311 304 302 299 299 298 296 297 296 296 296 294 294 293 293 293 292 292 291 290 290 290 291 292 292 293 294 296 297 300 301 302 302 303 305 307 307 307 308 307 307 305 305 304 301 300 299 297 297 298 296 297 297 297 297 297 298 299 299 299 299 299 299 299 299 299 299 299 299 300 300 300 300 300 300 301 302 302 302 302 300 300
316 315 313 315 315 316 320 316 314 315 312 311 312 315 320 315 310 308 301 298 299 297 297 297 295 295 294 294 293 292 292 292 291 291 290 289 289 290 290 291 292 293 294 295 298 299 299 300 301 302 303 304 304 304 304 304 304 303 301 300 299 298 296 296 296 293 293 293 293 293 293 295 296 296 297 297 297 297 297 297 297 297 297 297 298 298 297 297 297 298 298 299 300 300 300 299 299
319 319 315 314 315 317 317 315 315 318 319 313 310 320 330 323 317 310 302 301 300 299 299 298 296 295 295 295 294 293 292 291 290 290 289 289 289 289 289 290 290 291 291 293 296 298 299 299 300 301 301 301 302 302 302 303 302 301 301 299 297 294 292 290 290 288 289 289 289 289 290 290 292 292 293 293 293 293 293 293 294 294 294 294 295 295 296 296 296 296 296 297 297 298 298 298 299
321 321 317 313 313 315 317 316 318 322 322 313 309 318 328 327 322 311 302 303 301 300 300 298 297 296 295 295 294 294 293 292 291 289 288 288 288 288 289 289 289 290 290 293 296 299 300 300 300 300 300 300 300 301 301 302 301 300 298 295 291 289 287 287 287 287 287 287 287 288 288 288 288 289 289 289 289 289 289 289 289 289 289 290 290 291 292 293 293 294 295 296 296 296 297 297 296
324 318 317 316 314 316 319 318 319 322 320 315 314 316 320 323 320 309 302 305 303 301 301 299 297 296 295 295 294 293 293 292 292 291 288 288 288 288 288 288 288 289 290 292 295 297 298 299 299 299 299 298 299 299 299 300 298 296 293 290 288 288 287 287 287 287 287 287 288 288 287 287 287 287 287 287 287 288 287 287 287 287 287 287 287 287 288 288 289 290 291 292 293 293 294 294 294
322 312 313 316 315 317 319 318 318 316 314 320 321 315 316 324 320 308 303 306 307 305 303 300 298 297 295 295 294 293 293 292 291 290 289 287 287 287 287 287 288 288 289 290 291 293 295 296 297 296 296 295 295 296 296 295 294 293 291 289 288 288 288 288 288 288 288 288 288 287 287 287 287 287 287 287 287 287 287 287 287 287 287 287 287 287 287 287 287 287 288 288 289 289 289 290 291
314 308 311 314 313 316 316 317 318 314 315 324 324 316 318 325 325 314 308 311 312 308 304 301 299 297 296 295 294 293 293 292 289 288 288 287 287 287 287 287 287 287 287 288 289 290 292 293 294 294 293 292 292 292 293 292 291 291 290 289 288 288 288 288 288 288 288 288 288 287 287 287 286 286 286 286 286 286 286 286 286 286 286 286 286 286 286 286 286 286 287 287 287 287 287 287 287
309 312 317 316 316 318 318 319 317 315 320 323 318 316 316 320 327 322 314 316 315 308 305 301 299 298 296 295 294 293 293 292 290 288 287 287 287 286 287 286 286 286 286 287 288 289 290 291 291 291 290 290 290 290 290 290 289 289 289 289 288 288 288 288 288 288 288 288 287 287 286 286 286 286 286 286 285 285 285 286 285 285 285 285 285 285 285 285 285 286 286 286 286 286 286 286 286
311 320 321 318 320 319 319 321 318 319 327 321 312 312 314 318 328 323 315 313 309 306 306 302 299 298 296 295 294 293 293 293 291 289 287 287 287 286 286 286 286 286 286 287 288 288 289 290 290 290 289 289 289 289 289 289 289 289 289 288 288 288 288 288 288 288 287 287 287 287 286 286 286 286 285 285 285 285 285 285 285 285 285 285 285 285 285 285 285 285 285 285 285 285 285 285 285
313 321 321 321 325 322 322 323 319 321 323 314 310 313 314 317 322 318 316 313 305 303 304 301 299 298 296 295 294 294 293 293 292 290 287 286 286 286 286 286 286 286 286 287 288 288 289 289 289 289 288 288 289 289 289 289 289 289 288 288 288 288 288 288 288 287 287 287 287 287 286 286 286 285 285 285 285 285 285 285 285 285 285 285 284 284 284 284 284 284 284 284 284 284 284 284 284
313 318 321 324 327 329 332 326 319 319 317 310 309 313 314 318 318 314 313 308 301 300 301 300 299 297 296 295 293 294 293 293 292 290 287 286 286 286 286 286 286 286 286 287 287 288 288 288 288 289 288 288 289 289 289 289 288 288 288 288 288 288 288 288 288 288 287 287 287 287 286 286 286 285 284 284 284 284 284 284 284 284 284 284 284 284 284 284 284 284 284 284 284 284 284 284 284
313 317 318 322 327 332 333 329 326 325 319 312 310 313 321 323 315 307 304 300 297 298 298 298 299 297 296 294 293 294 293 292 292 290 287 286 287 286 286 286 286 286 287 287 288 288 288 288 288 289 288 288 289 289 289 288 288 288 288 288 288 288 288 288 288 288 288 287 287 287 286 286 285 285 284 284 284 284 284 284 284 284 284 284 283 284 284 284 284 283 283 283 283 283 283 283 283
313 313 315 319 323 326 322 317 320 321 319 315 313 316 322 317 307 299 299 298 296 297 297 297 298 296 295 294 293 293 293 292 292 291 288 287 287 287 286 286 286 286 287 287 288 288 288 288 288 288 288 288 288 288 288 288 288 288 288 288 288 288 288 288 288 288 288 287 287 287 286 286 285 285 285 284 284 284 284 284 284 284 283 283 283 283 283 283 283 283 283 283 283 283 283 283 282
313 312 318 318 315 321 322 312 308 311 318 318 315 318 317 312 308 302 299 301 298 296 297 297 297 295 294 294 293 293 292 291 291 290 288 287 287 287 286 286 286 286 287 287 287 288 288 288 288 288 288 288 288 288 288 288 287 287 287 288 288 288 288 288 288 287 287 287 287 287 286 286 285 285 285 284 284 284 284 284 283 283 283 282 283 282 282 283 282 282 282 282 282 282 282 282 282
315 317 320 314 311 319 323 318 315 315 320 319 315 317 317 315 316 309 302 306 304 298 296 296 295 295 294 294 293 293 292 291 290 289 287 286 287 287 286 287 286 286 287 287 287 288 288 288 288 288 288 288 287 287 287 287 287 287 287 287 287 287 287 287 287 287 287 287 287 286 286 286 285 285 284 284 284 284 283 283 283 283 282 282 282 282 282 282 282 282 282 282 282 282 282 282 281
314 316 314 314 318 321 318 319 322 321 322 323 317 313 315 316 318 315 310 312 310 301 296 295 295 295 294 294 294 293 292 291 290 289 287 286 287 287 287 287 287 287 287 287 287 288 288 288 288 288 288 287 287 287 287 287 287 287 287 287 287 287 287 287 287 287 287 287 287 286 285 285 284 284 284 283 283 283 283 283 282 282 282 282 281 281 281 281 281 281 281 281 281 281 281 281 281
311 311 309 313 318 320 319 319 320 321 322 324 319 315 318 317 317 319 317 313 309 303 298 296 296 295 295 295 294 293 292 291 290 290 288 286 287 287 287 287 287 287 287 287 287 287 288 288 288 288 287 287 287 287 287 287 287 287 287 287 287 286 286 286 286 286 287 287 286 285 284 284 283 283 283 283 283 282 282 282 282 282 281 281 281 281 281 281 281 281 281 281 280 280 280 280 280
313 313 312 314 314 315 319 317 315 320 323 325 322 319 320 317 314 318 317 310 304 303 300 298 296 295 295 295 294 294 292 291 290 289 287 286 287 287 287 287 287 287 287 287 287 287 287 287 287 287 287 287 287 287 287 287 287 287 287 287 286 286 286 286 286 286 286 286 285 284 284 283 282 282 282 282 282 282 282 281 281 281 281 281 281 281 281 280 280 280 280 280 280 280 280 279 279
314 314 314 315 315 315 318 317 314 316 319 322 322 320 319 316 310 310 311 307 303 300 300 298 297 296 296 295 295 294 292 291 290 289 287 286 287 287 287 287 287 287 287 287 287 287 287 287 287 287 287 287 287 287 287 287 287 287 287 286 286 286 286 286 286 286 285 285 284 283 282 282 282 281 281 281 281 281 280 280 280 280 280 280 280 280 280 280 280 279 279 279 279 279 278 278 278
Wind_Speed
8 8 8 8 7 4 2 3 2 1 3 2 1 0 1 2 1 2 2 1 1 2 2 1 2 1 1 1 2 3 3 3 3 2 0 3 1 1 12 8 3 11 20 26 28 27 25 24 22 20 18 18 17 17 16 15 13 12 11 10 9 8 7 6 7 7 9 10 10 9 9 9 9 8 8 8 7 7 7 8 7 7 8 9 9 8 9 9 10 10 9 9 10 10 10 9 8
8 7 8 6 5 2 1 2 2 2 4 3 1 1 2 2 1 3 3 2 2 2 1 1 2 1 0 1 1 2 1 3 3 1 2 3 2 2 11 9 3 10 20 25 28 27 26 25 22 20 19 18 18 17 17 15 14 13 12 11 9 8 7 6 6 7 8 9 8 9 9 9 9 8 8 7 7 7 7 7 7 7 7 8 8 8 8 8 8 8 7 7 7 7 7 6 6
9 5 8 4 3 3 1 3 2 1 4 3 1 3 1 1 3 4 5 4 4 3 2 1 1 1 1 2 1 2 1 3 2 2 3 3 2 1 10 9 3 10 20 23 27 28 26 25 23 21 19 18 17 17 17 16 15 13 13 11 10 9 8 7 7 8 9 9 8 9 9 8 9 8 8 7 6 6 7 7 6 6 5 6 7 7 7 5 5 5 5 5 4 4 4 4 4
8 5 8 2 1 4 3 3 2 3 3 2 1 2 2 2 4 5 6 5 4 3 1 1 1 1 2 2 1 1 2 3 2 4 1 3 3 1 10 10 4 11 20 22 26 27 26 25 24 22 20 19 17 17 16 16 15 14 13 12 11 9 9 8 8 9 10 9 9 10 9 8 8 8 8 6 6 6 6 6 6 5 4 5 5 6 6 4 3 3 3 4 5 5 6 5 5
6 5 8 2 2 2 2 3 2 3 2 3 2 2 3 4 4 4 6 5 3 2 2 2 0 1 1 1 1 2 2 2 2 4 2 3 4 1 10 10 5 12 19 21 24 27 26 25 24 23 21 20 18 17 16 16 15 14 14 12 11 10 9 8 8 10 10 9 9 9 8 8 8 8 7 6 7 8 7 6 5 4 4 4 5 5 5 4 4 3 4 6 7 9 9 8 7
6 4 7 6 3 1 2 3 3 2 3 4 2 3 4 4 4 4 6 5 2 2 1 1 1 1 0 2 2 3 2 1 2 3 3 3 5 2 10 10 7 11 18 19 21 25 25 25 24 23 21 20 18 17 17 16 15 14 14 12 11 9 9 8 8 10 10 10 9 8 9 9 8 7 6 6 7 8 7 6 5 4 4 5 6 6 6 5 7 5 4 6 9 12 11 11 10
7 3 4 6 2 2 3 3 3 2 2 3 2 3 4 4 3 2 5 3 0 1 1 1 0 1 0 3 2 3 4 3 3 3 4 6 5 1 9 10 8 10 16 17 19 23 24 24 24 22 22 20 19 17 17 17 15 14 13 12 11 9 8 8 8 10 9 9 9 8 8 8 8 7 4 5 7 7 6 5 5 4 4 5 6 6 5 6 7 4 5 10 12 13 12 13 14
7 3 0 3 2 3 3 2 2 2 0 2 3 4 5 5 2 1 3 1 0 2 2 2 1 2 1 2 1 3 4 4 5 6 8 8 5 2 9 10 8 9 14 16 17 20 22 24 23 22 22 21 19 18 17 17 15 14 13 12 11 9 8 8 8 10 9 9 8 8 8 7 9 7 5 5 6 7 6 6 5 4 5 5 5 4 4 6 6 4 7 12 13 14 15 15 15
6 4 0 3 2 3 2 1 0 2 3 3 3 4 5 4 1 1 2 2 1 1 3 4 1 2 2 2 2 4 4 4 7 6 6 5 3 2 7 9 7 7 11 15 15 17 20 22 23 22 21 20 20 18 17 16 16 15 14 13 11 10 9 8 9 10 10 9 8 8 7 6 7 6 5 4 6 7 7 7 6 5 5 5 3 2 4 5 4 6 11 13 14 14 15 15 15
5 5 1 3 3 3 2 0 1 1 4 4 3 5 5 2 1 1 0 1 2 1 3 2 0 2 2 2 2 2 6 8 7 5 4 3 2 1 5 8 6 5 8 13 14 15 17 20 22 22 21 20 19 19 17 16 16 16 15 14 12 11 10 9 9 10 10 10 9 9 8 6 7 6 5 4 5 7 7 7 6 6 5 4 1 3 5 5 6 10 13 13 14 14 15 15 14
3 4 2 3 3 2 1 2 2 2 4 4 3 5 4 2 1 1 0 1 2 2 2 1 1 1 0 2 2 2 8 8 4 4 4 2 2 1 4 6 6 4 6 10 13 13 14 17 20 22 21 20 19 19 18 17 16 16 15 14 13 11 11 11 10 11 11 10 10 9 8 6 6 6 6 5 5 6 7 7 7 6 4 2 1 3 4 6 9 11 13 13 13 14 15 15 13
2 3 3 4 2 2 3 2 3 4 5 3 1 2 2 3 1 1 1 1 2 3 2 2 0 2 1 3 1 4 11 11 6 5 4 2 1 1 3 5 5 4 5 8 10 12 12 15 18 21 21 20 20 19 19 18 16 16 16 15 13 12 11 11 11 12 12 11 10 10 9 7 7 6 6 6 6 6 7 7 6 4 2 1 1 3 3 7 10 12 13 13 13 14 16 15 12
3 1 4 3 2 2 2 2 3 3 4 1 1 1 1 2 1 2 1 1 3 4 2 3 1 1 0 2 2 4 9 13 9 5 5 3 2 1 2 4 4 4 5 6 8 10 11 12 15 19 20 21 20 20 19 19 17 17 16 16 15 13 12 11 11 12 13 12 11 10 10 8 7 7 6 6 6 6 7 7 6 4 2 1 1 2 4 7 11 13 13 13 13 14 15 14 10
2 2 4 3 0 1 3 1 1 1 0 3 2 3 1 1 2 3 3 2 3 1 1 2 3 1 0 2 4 2 5 13 10 7 6 4 3 2 2 3 3 3 4 5 8 9 10 11 13 16 19 20 20 20 19 19 19 17 16 16 16 14 12 11 11 13 13 12 11 11 11 10 8 7 7 7 6 6 6 6 6 4 2 1 1 3 6 8 11 12 13 14 14 14 15 13 8
3 2 4 4 1 0 2 1 1 4 2 3 1 2 3 1 2 1 2 2 3 3 2 2 2 1 1 0 3 3 9 15 10 7 7 5 4 3 2 2 2 3 3 5 7 8 10 11 12 14 17 19 20 20 20 20 19 18 17 17 16 15 13 11 11 13 14 13 12 12 12 12 10 9 8 8 7 7 7 6 6 4 2 1 2 6 8 9 11 13 13 14 14 15 14 11 8
3 3 4 3 1 0 3 2 2 3 2 3 1 1 3 3 2 1 2 1 3 3 3 2 2 1 1 2 4 9 14 15 9 7 5 4 4 4 4 3 3 3 3 4 6 8 10 11 12 13 14 17 19 20 21 21 20 19 18 18 17 15 14 12 11 13 14 14 13 13 13 13 12 10 9 8 8 7 6 7 6 4 3 4 5 7 8 9 11 13 14 14 14 15 14 10 7
3 4 4 3 1 2 3 4 3 3 2 5 3 3 3 4 2 1 2 2 3 4 4 4 2 1 2 3 10 14 14 12 9 6 5 6 6 5 5 5 5 3 3 4 5 6 9 11 12 13 14 15 17 19 21 22 21 20 19 18 17 16 15 13 13 13 14 15 15 14 13 14 13 11 10 9 9 8 7 7 7 6 5 7 8 8 8 9 11 13 14 15 15 16 15 10 7
4 3 3 1 2 2 4 6 6 2 1 4 3 3 3 2 4 2 1 2 3 3 4 4 5 3 3 10 16 16 13 13 13 12 13 13 13 12 11 10 9 7 5 4 4 5 7 11 13 14 14 14 15 16 19 22 22 20 19 19 18 18 16 15 15 14 15 15 15 15 14 14 14 12 11 10 10 9 8 7 8 8 6 7 8 7 7 8 10 12 14 15 15 16 16 11 8
3 3 2 1 5 3 4 6 5 2 1 4 4 2 2 1 2 3 3 5 6 6 6 4 6 4 7 16 19 18 18 20 20 20 21 19 19 18 18 16 14 12 9 7 6 6 7 9 12 15 16 15 15 15 17 19 22 21 19 19 18 18 17 16 16 16 17 17 15 16 15 15 14 12 12 11 11 9 8 7 7 9 9 8 8 6 6 8 9 11 13 15 15 16 16 14 10
1 3 2 4 5 3 4 5 5 4 2 3 3 1 1 3 2 1 2 6 6 3 5 3 5 6 6 12 18 21 22 25 25 25 24 22 20 19 19 19 17 16 14 11 9 8 9 10 11 13 15 16 15 15 17 18 20 21 20 18 17 17 17 17 17 17 18 17 15 17 16 15 14 13 13 13 11 9 8 8 8 10 11 10 10 7 5 9 10 11 13 14 15 15 16 16 13
2 3 3 4 3 1 4 6 5 4 3 2 1 2 3 2 2 1 1 4 5 2 3 2 4 6 6 7 14 20 21 23 25 25 24 22 22 21 20 18 17 16 15 12 10 9 10 12 13 12 13 15 16 15 17 18 18 19 19 19 17 17 17 16 16 16 17 16 15 17 16 16 15 14 14 14 11 8 9 11 10 11 12 12 11 8 7 11 11 12 13 14 15 15 15 16 15
1 0 3 4 3 1 3 4 4 3 3 2 0 3 3 1 2 3 4 2 3 3 3 2 3 4 5 6 10 15 17 18 20 22 21 21 22 22 22 20 18 17 16 14 11 9 8 12 15 13 11 13 15 15 16 18 18 18 17 17 17 17 16 15 16 16 17 18 17 17 18 17 15 14 14 15 13 9 10 13 12 12 13 13 12 10 9 12 12 13 12 14 16 16 16 16 16
1 1 1 3 3 3 2 2 3 4 3 1 2 2 1 2 2 2 5 2 1 4 4 5 7 6 7 9 11 12 13 14 16 18 18 19 20 20 21 21 20 20 19 17 14 11 8 9 14 15 12 11 13 15 16 17 18 18 17 15 15 16 14 13 14 15 17 18 16 16 18 20 19 16 14 15 13 9 12 15 15 13 13 15 16 13 11 11 11 11 11 14 16 15 16 16 16
3 1 2 1 3 4 3 1 2 4 3 4 1 2 2 1 3 1 3 2 4 5 6 8 9 10 12 12 12 11 12 13 15 17 18 18 19 18 19 20 21 21 21 20 17 14 11 6 10 14 13 10 11 14 15 16 17 17 17 16 15 14 13 12 12 13 15 16 17 15 17 23 23 17 14 14 12 11 14 14 14 12 13 17 18 15 11 10 8 9 11 14 15 14 15 16 15
3 3 2 1 2 6 4 3 4 4 5 3 1 3 4 4 2 1 4 5 4 4 7 8 9 12 13 12 11 11 12 15 16 18 20 20 20 21 22 23 23 23 23 22 20 18 15 8 3 8 11 9 8 10 12 14 15 14 15 15 13 11 12 12 11 12 14 14 15 14 16 20 21 16 13 14 14 14 14 14 13 13 15 16 16 14 12 10 7 9 11 13 12 12 14 15 15
3 4 2 1 3 5 4 5 5 4 4 2 2 5 2 2 1 2 3 4 3 5 8 7 8 11 10 9 10 11 12 15 16 17 19 21 24 26 26 26 25 25 23 22 21 19 17 11 4 2 5 7 7 7 9 11 12 12 12 11 11 9 8 8 8 10 12 11 10 11 14 16 18 18 14 14 15 15 15 14 13 14 15 15 16 15 14 11 10 10 11 11 10 11 13 14 15
2 4 3 4 3 5 3 4 4 2 3 3 4 6 2 2 0 3 2 4 3 6 8 6 8 9 8 8 8 11 13 15 17 18 21 24 26 27 26 25 25 24 23 22 22 20 17 14 9 5 1 4 8 6 6 8 9 9 9 8 9 9 5 6 8 9 9 10 10 10 12 14 17 18 14 17 19 17 17 16 12 12 13 14 15 16 16 14 12 11 11 10 9 10 12 13 15
2 1 3 6 5 5 3 3 4 1 2 4 6 4 2 3 2 2 3 4 3 6 7 7 8 7 7 7 8 11 13 14 18 19 20 21 22 23 23 24 23 22 22 22 21 19 17 16 15 11 8 6 9 8 6 8 7 6 6 5 4 5 3 6 5 4 6 8 8 8 10 11 15 16 14 17 19 15 14 15 12 11 13 14 15 16 16 15 12 12 11 9 9 10 11 11 14
1 2 3 7 7 6 4 3 3 1 0 3 5 1 4 4 2 1 3 2 4 8 7 7 7 5 6 6 7 9 11 14 17 19 18 18 19 20 21 21 21 21 21 21 20 19 18 18 18 16 14 12 11 8 8 8 7 5 5 5 2 3 2 4 4 2 4 6 5 5 6 8 11 12 10 10 12 9 8 12 14 14 13 15 16 17 16 14 11 10 10 9 9 10 9 10 13
1 3 3 5 7 5 4 2 3 2 0 1 1 2 4 0 2 4 5 1 3 8 6 6 5 4 5 5 5 7 11 14 15 18 19 19 20 19 20 20 20 20 20 21 21 20 19 18 18 18 17 16 14 10 9 11 9 7 7 7 4 6 7 4 6 2 2 3 3 2 3 4 5 6 6 6 8 8 7 9 11 13 13 13 13 14 13 11 10 10 11 10 10 10 9 10 13
2 1 2 2 2 4 5 2 3 1 1 2 2 2 4 3 3 6 7 1 4 6 5 5 4 4 4 5 6 6 9 13 15 19 20 20 20 20 20 20 20 20 21 22 23 22 20 20 20 19 19 18 17 15 13 14 14 14 15 15 14 13 14 15 15 11 9 9 7 6 6 4 3 3 3 3 5 5 4 4 6 9 9 8 9 10 10 10 10 11 11 11 11 12 11 11 12
3 1 3 3 1 5 7 3 2 1 1 5 4 2 4 3 2 6 6 3 7 6 3 4 4 5 5 5 6 5 7 12 18 22 22 21 21 20 20 20 21 21 21 22 23 23 23 23 23 22 22 20 20 18 18 18 18 20 21 22 23 22 22 24 25 22 20 19 17 15 13 11 8 6 5 4 3 3 4 4 5 6 6 6 6 7 8 9 9 9 10 10 11 12 11 11 11
3 1 3 3 1 3 6 3 2 1 1 4 3 2 3 2 2 5 5 4 6 6 3 4 4 5 5 5 6 5 6 10 16 22 23 21 20 19 20 20 21 21 22 22 23 25 25 26 26 27 27 26 24 23 23 23 22 22 22 22 23 24 26 28 28 26 26 25 24 23 21 20 18 16 13 10 7 7 7 7 8 8 7 6 5 6 7 7 8 9 9 10 10 11 12 11 10
3 1 2 4 2 2 4 3 3 4 3 1 3 0 5 3 2 4 5 4 5 7 4 4 4 5 5 5 5 6 6 7 10 17 20 19 19 18 19 19 20 21 22 23 24 25 26 27 29 30 31 30 29 28 28 28 27 28 28 27 26 28 29 29 29 29 29 29 28 27 26 24 24 23 21 18 15 13 12 10 9 10 10 9 8 7 6 6 6 8 8 9 9 10 11 11 11
3 2 2 3 2 3 4 3 2 4 4 2 3 2 8 6 3 4 5 4 6 6 3 3 5 5 5 5 5 5 6 6 8 14 17 17 18 18 19 20 21 22 23 23 24 25 26 27 28 30 31 32 31 31 32 31 32 33 33 31 30 33 32 30 30 31 30 30 30 28 26 25 24 24 23 22 21 19 18 17 15 14 12 11 11 10 10 9 8 7 8 7 7 7 8 9 10
6 5 4 3 3 4 4 4 4 1 2 3 5 5 9 9 2 4 4 3 5 4 3 4 4 5 5 5 5 5 5 6 8 13 16 17 18 18 18 20 22 23 24 24 25 25 26 26 27 29 30 31 30 30 31 32 32 33 33 33 33 35 34 32 32 32 31 30 29 28 26 25 24 24 24 23 23 22 21 20 19 18 16 14 14 14 13 12 10 9 8 7 7 6 6 7 8
5 4 4 4 4 5 4 3 4 1 1 4 4 4 7 8 4 3 2 2 5 4 4 4 4 4 4 4 4 5 4 5 9 13 16 17 18 18 19 20 22 24 25 25 26 27 27 27 27 28 28 28 27 28 29 30 31 32 34 35 35 35 34 34 34 32 31 30 28 27 26 25 24 24 23 22 23 23 22 22 21 21 19 18 18 17 15 13 12 12 10 8 8 8 8 8 10
4 4 3 3 4 6 5 2 4 1 2 3 2 1 7 5 2 4 3 3 4 3 3 3 4 4 3 4 4 4 3 4 9 14 17 18 18 19 21 22 23 24 24 25 26 27 27 28 28 27 26 25 25 25 26 29 31 31 32 34 34 33 33 34 34 32 31 29 29 28 27 26 24 24 24 23 23 23 22 22 22 22 21 21 20 18 16 15 15 14 13 12 11 11 11 11 13
2 3 3 3 3 3 4 2 4 2 3 3 3 2 6 2 2 3 3 3 3 2 3 3 3 4 4 3 3 3 3 4 7 11 15 17 18 19 21 22 23 22 23 24 25 26 27 28 28 28 27 26 26 25 25 28 30 29 29 31 32 33 34 33 33 32 31 30 30 29 28 27 26 26 25 24 24 23 22 22 22 21 20 19 18 18 18 17 17 17 16 15 14 13 12 12 14
3 3 3 4 3 1 3 3 3 2 1 2 1 4 4 0 2 3 3 2 3 3 3 3 3 3 3 2 2 3 3 4 5 7 11 15 17 18 20 20 20 21 23 25 26 26 27 27 27 29 29 29 30 29 29 30 29 29 29 30 31 32 33 31 31 31 31 31 31 30 29 28 27 28 27 26 25 25 24 24 22 21 21 19 18 19 19 20 19 18 17 16 15 15 14 13 13
4 5 6 5 4 6 6 2 2 2 3 0 0 4 4 1 1 0 1 1 2 2 3 3 3 2 2 2 2 3 3 3 3 4 7 12 14 15 16 17 19 21 23 25 26 27 26 25 25 26 28 30 30 31 31 30 30 30 31 31 30 31 32 31 31 33 32 33 33 32 31 30 29 29 29 28 27 27 26 25 24 23 23 21 21 21 21 20 19 19 18 17 17 17 15 14 14
3 5 10 10 8 7 5 1 2 3 3 2 1 1 4 2 2 3 2 0 1 2 2 2 1 1 1 2 2 2 2 2 2 3 5 9 11 12 14 16 18 21 22 24 26 27 27 26 25 25 26 27 28 28 28 27 28 28 28 29 31 33 34 32 32 33 34 35 34 33 33 32 31 31 30 30 29 28 28 27 26 26 25 25 24 23 22 21 20 20 18 17 18 16 14 15 16
2 5 9 10 7 6 5 4 3 1 2 2 2 2 3 5 3 2 4 2 1 1 1 0 1 1 1 1 1 1 1 2 2 3 5 7 9 10 12 14 17 20 21 23 26 28 29 28 27 27 27 27 28 28 27 26 28 29 30 33 35 36 35 31 31 33 33 33 33 33 33 32 31 31 31 30 29 29 28 28 28 27 27 27 26 25 25 24 22 21 19 18 18 17 16 17 18
3 3 5 7 7 7 6 6 4 2 2 2 2 3 2 4 3 1 3 3 1 2 2 2 2 1 1 1 1 1 0 1 1 2 4 6 7 8 10 12 16 19 22 25 27 29 30 29 29 28 28 29 29 30 29 29 31 34 36 38 38 36 35 32 31 32 32 31 32 32 31 31 30 30 29 29 28 28 27 27 26 26 26 26 26 26 25 24 23 22 20 20 19 19 19 18 18
4 2 5 6 6 6 5 6 3 1 1 3 3 2 2 4 4 1 2 2 2 5 6 5 4 3 3 2 1 1 0 0 0 0 2 4 5 7 9 12 15 19 22 26 28 30 31 31 30 30 30 30 30 31 32 32 34 35 37 38 38 35 34 32 31 30 30 30 31 30 30 30 29 29 28 28 27 27 26 26 25 25 25 24 24 23 23 22 22 22 21 21 21 20 20 19 18
3 5 7 6 6 5 4 4 3 2 1 4 5 3 3 4 4 1 1 3 5 6 6 5 5 5 4 3 3 2 1 0 0 1 2 4 5 7 9 12 15 18 22 25 28 30 32 32 31 31 31 31 31 31 33 34 34 35 36 36 36 33 32 31 30 30 29 28 29 29 28 28 27 27 27 27 26 26 25 25 24 24 24 23 22 21 21 21 20 20 20 19 19 19 19 18 18
6 6 6 6 6 4 3 2 3 3 2 5 5 3 2 2 5 3 3 3 4 6 5 4 5 5 5 4 4 3 2 1 1 2 4 5 7 8 10 13 15 18 21 25 27 29 31 31 31 32 31 31 31 31 32 34 33 34 34 33 33 31 30 29 29 29 28 27 28 27 26 26 26 26 25 25 25 24 24 23 23 23 22 21 21 21 20 20 19 18 18 17 17 18 17 16 16
5 4 5 4 3 3 3 4 3 1 4 5 3 1 2 3 4 3 3 3 2 5 7 9 9 7 6 5 4 4 3 3 2 2 4 6 8 9 11 14 16 18 21 24 26 28 29 30 30 31 31 30 30 31 31 32 32 32 31 31 30 29 28 28 29 29 27 27 27 26 25 24 24 24 24 24 24 23 22 22 21 21 21 21 21 21 20 19 19 18 17 17 17 17 16 16 15
3 4 5 4 1 3 2 2 1 3 5 3 1 1 2 5 6 4 4 4 3 3 5 9 12 10 9 7 6 4 3 3 3 3 4 6 8 10 11 14 16 19 21 24 26 27 28 29 29 31 30 29 29 30 30 31 31 30 29 29 29 28 28 28 28 27 26 26 25 25 24 24 23 23 23 23 23 22 22 22 21 21 21 21 20 20 20 20 20 19 19 19 18 18 17 17 16
4 5 5 4 2 2 1 3 2 3 3 2 2 1 1 4 5 3 5 4 3 2 2 4 8 10 9 8 6 5 4 4 4 3 4 6 9 10 11 14 16 19 21 23 25 26 28 28 28 30 29 28 28 28 28 29 29 28 27 27 26 26 26 26 26 26 25 24 24 24 24 23 23 22 22 22 21 21 21 21 21 21 21 21 21 21 20 21 21 20 20 20 20 19 19 18 17
3 3 4 4 4 4 4 4 3 3 2 2 3 1 4 4 2 2 2 2 3 2 2 3 4 5 6 5 5 5 5 5 4 4 5 8 10 10 12 14 16 19 21 24 25 26 27 27 28 29 28 26 26 26 26 27 27 26 25 25 24 24 24 24 24 23 23 23 22 22 22 22 22 21 20 20 20 20 20 20 21 21 21 21 21 21 21 21 22 21 21 21 21 21 20 20 20
1 1 4 2 4 4 2 3 5 3 1 2 2 3 4 4 1 2 2 2 2 1 1 3 5 5 6 5 5 6 6 5 5 4 6 9 11 11 12 14 17 19 22 24 25 25 26 27 27 27 26 25 24 24 24 24 24 23 23 22 22 21 21 21 21 21 20 20 20 20 21 21 20 20 20 19 19 19 20 20 21 21 21 22 22 22 22 22 22 22 22 22 22 22 22 22 22
2 2 3 4 3 6 4 1 1 3 1 3 2 3 3 0 1 2 2 2 2 1 1 5 6 6 7 6 7 7 7 6 6 5 7 10 12 12 14 16 17 20 22 24 25 25 25 26 26 26 25 24 23 22 22 22 22 21 20 20 19 18 19 19 18 18 18 18 19 19 19 20 20 20 20 20 20 20 20 21 21 22 22 22 23 23 23 23 23 23 23 23 23 23 23 23 23
5 3 5 3 2 4 3 2 2 3 2 4 1 4 3 2 2 2 1 3 5 4 3 4 6 7 8 8 8 8 8 6 6 6 8 12 13 14 15 16 18 20 22 24 24 24 24 24 24 25 24 23 22 21 20 19 18 18 18 16 16 15 15 15 15 15 15 15 17 17 18 19 19 19 19 19 19 20 20 21 22 23 23 23 23 23 23 23 24 24 24 24 24 24 24 24 24
4 4 3 3 3 1 2 2 1 1 3 4 2 2 3 4 4 3 5 9 9 7 5 6 9 10 10 10 10 10 8 6 6 6 8 12 15 16 17 18 19 20 22 23 24 24 24 23 22 23 22 21 20 18 18 17 15 16 15 14 13 13 12 12 12 12 13 14 15 16 17 17 18 17 18 18 19 20 20 21 22 23 23 24 24 24 25 25 25 26 26 26 25 25 25 25 25
2 1 1 2 2 3 2 2 3 2 2 3 2 1 3 5 6 8 12 13 12 10 8 10 12 12 12 12 11 11 9 8 8 7 9 13 17 18 19 20 21 22 22 23 24 23 23 23 22 22 21 20 18 16 16 15 13 13 13 12 11 10 9 10 10 10 12 14 15 15 16 17 17 16 17 18 18 19 20 21 22 23 23 24 24 25 25 25 26 26 26 27 27 27 27 27 26
2 2 3 1 0 2 1 1 2 3 3 2 3 4 4 4 3 8 10 8 10 13 12 11 11 12 13 12 11 11 9 9 9 9 10 14 18 19 20 21 21 21 22 22 23 23 23 22 22 21 20 19 18 16 14 13 13 11 10 10 9 8 7 7 8 10 12 13 13 14 15 15 15 15 16 16 17 17 18 19 20 21 22 22 23 24 24 25 25 26 26 26 27 27 27 27 27
4 4 5 5 3 3 2 3 1 2 2 3 2 4 5 3 2 4 4 3 7 10 10 10 11 13 13 12 12 11 10 11 10 9 11 15 18 20 21 21 21 21 22 23 23 23 22 22 22 21 20 18 17 15 13 12 12 10 8 8 6 5 6 6 7 9 10 12 13 14 15 15 16 17 18 18 19 19 19 20 20 21 21 22 23 24 24 25 26 26 27 27 27 27 27 28 28
Wind_Direction
344 339 341 343 338 327 351 49 89 336 70 85 311 40 238 234 292 288 282 286 327 243 213 271 219 190 232 195 210 205 183 171 169 108 55 224 341 161 179 180 178 179 180 179 176 178 180 176 176 177 178 178 176 175 175 175 174 175 174 169 164 161 160 154 149 146 145 144 143 143 141 136 133 129 129 130 125 124 120 111 108 105 103 100 94 95 97 98 99 100 99 96 95 93 89 84 79
345 338 344 345 347 358 232 60 98 346 54 87 261 190 271 304 309 244 236 212 201 243 268 261 246 285 12 163 186 145 208 222 198 183 279 273 345 197 185 183 190 183 181 182 179 179 183 180 177 179 181 181 179 179 180 179 177 180 181 178 172 168 166 159 152 149 146 144 143 145 142 136 135 133 131 133 127 126 123 114 112 109 107 104 99 100 100 102 104 104 103 100 97 91 86 81 76
345 338 345 344 8 31 82 44 96 66 76 91 289 235 295 321 234 236 230 222 223 271 322 226 208 256 81 21 322 120 320 259 230 219 275 302 5 144 184 187 188 181 181 183 183 182 185 184 181 181 183 183 183 183 184 183 181 183 185 183 179 173 167 164 157 154 149 146 150 147 140 138 140 137 136 138 134 129 125 120 115 111 112 110 106 103 100 102 106 105 101 90 75 58 45 39 40
346 345 346 330 95 30 63 42 124 120 106 150 338 260 260 209 236 255 247 247 252 286 306 157 150 217 126 357 295 130 311 278 230 202 265 353 11 124 178 183 184 177 180 185 186 186 187 187 186 183 184 185 186 189 187 187 185 186 188 184 183 178 170 172 165 156 150 147 148 144 140 141 140 138 140 144 142 137 132 129 123 116 117 111 109 103 92 84 81 97 75 52 36 12 352 338 332
351 358 1 56 125 36 100 67 101 95 151 181 91 265 251 217 245 276 272 282 271 234 172 133 71 274 147 273 172 144 281 278 276 230 246 356 5 146 173 179 179 176 180 186 189 190 190 189 190 187 186 186 188 194 191 191 190 189 192 187 187 184 178 179 169 158 155 151 146 145 146 143 141 141 145 147 147 148 140 133 130 125 119 109 105 89 72 53 15 31 45 32 18 3 350 332 318
3 20 33 66 102 102 120 85 99 89 191 178 114 247 267 227 230 277 299 307 269 211 159 83 68 346 238 267 216 208 242 11 318 261 248 336 359 141 175 180 172 175 181 187 191 193 193 192 194 191 190 188 188 197 196 195 194 194 196 194 193 190 185 183 174 163 160 159 154 154 152 147 147 146 151 151 153 151 140 133 137 137 127 106 94 78 66 45 3 7 25 7 358 358 359 352 337
10 10 35 61 64 44 96 107 143 139 176 182 172 240 274 261 212 293 321 336 66 346 36 27 101 99 322 310 293 245 262 266 282 288 293 316 335 165 177 182 174 176 182 189 194 196 196 194 196 194 194 190 189 199 201 199 198 200 201 200 199 199 194 186 177 168 166 166 162 160 154 150 154 153 149 148 153 148 139 141 147 152 134 104 91 75 56 31 8 13 351 343 346 348 349 349 347
16 15 330 72 39 26 85 105 169 189 254 223 240 241 260 274 212 108 331 3 21 343 2 312 280 105 330 346 337 279 299 282 287 296 299 309 322 185 180 184 179 178 184 192 196 199 199 198 198 197 197 193 191 199 204 203 203 204 206 206 204 205 204 196 183 174 175 176 170 166 159 157 158 159 155 141 144 144 144 152 156 153 125 107 98 72 37 25 19 9 338 336 337 337 335 335 339
27 31 152 76 72 31 49 53 254 234 272 257 258 255 264 280 228 124 338 344 327 279 296 289 302 27 324 337 277 288 345 335 312 308 307 313 323 164 182 184 183 186 190 195 198 201 202 202 202 200 200 197 196 201 205 207 207 209 209 210 209 207 209 206 193 180 182 184 179 174 169 170 166 164 171 154 142 146 153 160 160 147 124 116 106 39 20 25 8 331 327 328 328 330 331 330 332
36 24 113 77 79 51 28 322 279 242 259 264 264 256 256 261 231 263 181 350 338 274 283 265 15 1 327 309 294 324 352 334 329 343 344 341 347 138 181 184 182 191 199 203 203 205 205 206 206 204 203 201 203 205 207 208 209 213 212 211 212 212 213 214 201 188 189 189 187 186 179 181 180 174 182 177 158 158 162 166 165 153 144 141 118 12 9 4 343 330 327 326 327 330 333 332 331
40 3 91 80 73 101 150 197 269 279 278 295 286 257 238 203 198 289 171 330 336 313 286 110 119 196 50 306 267 351 3 352 3 17 358 9 4 147 183 190 186 188 200 209 208 210 211 210 211 209 207 206 209 211 212 212 212 216 216 215 215 218 218 219 209 194 195 196 196 195 189 191 193 188 191 194 183 171 167 173 175 169 173 175 59 28 11 343 338 335 330 327 328 331 335 334 331
81 348 59 83 112 160 172 183 266 291 303 331 350 290 189 160 137 326 329 311 328 335 271 187 195 164 36 330 259 346 20 22 16 12 355 6 341 214 194 201 200 196 193 205 209 213 214 214 215 214 212 211 213 215 217 217 217 219 221 220 219 224 224 223 216 202 202 203 203 201 199 204 206 202 202 202 199 188 178 180 185 195 216 195 40 23 355 339 342 337 328 326 327 328 333 334 331
113 140 78 90 157 157 147 166 269 308 330 323 257 300 140 149 214 230 174 5 328 1 308 218 197 101 342 293 305 335 21 18 1 353 338 335 332 281 223 217 217 216 200 201 208 214 216 216 217 218 218 216 216 219 221 221 222 223 224 226 224 227 231 229 224 212 207 207 208 210 211 213 215 214 214 213 208 202 192 185 189 207 217 172 52 3 346 346 344 336 328 325 326 328 332 333 330
128 153 101 108 78 136 157 124 279 123 310 252 269 308 300 222 201 189 131 44 308 280 304 214 154 110 228 304 328 312 6 5 357 340 327 329 336 322 277 245 237 235 220 209 209 216 218 219 219 220 222 221 221 222 225 226 225 226 227 230 229 230 234 235 231 218 212 213 211 213 219 219 220 220 220 222 216 211 204 194 193 203 207 184 15 357 351 351 343 335 331 328 327 329 333 332 326
126 128 90 109 57 42 183 143 150 128 156 238 288 323 341 328 130 94 140 105 286 227 301 281 159 252 218 29 310 305 338 345 344 330 324 336 350 358 353 331 288 265 242 225 218 219 220 223 222 222 224 224 225 225 227 229 229 230 231 232 231 232 237 238 235 223 216 219 218 217 223 225 225 224 224 226 225 218 210 205 203 206 226 267 345 349 346 346 342 339 335 332 331 333 336 332 323
116 110 72 93 113 164 185 164 145 118 188 236 268 87 26 336 97 40 250 150 285 300 360 272 192 307 191 124 339 343 346 346 345 336 335 346 2 21 22 22 356 313 281 260 238 229 225 227 226 224 225 226 228 227 227 230 231 231 232 236 235 234 236 237 236 229 223 222 225 226 227 229 229 227 228 230 227 224 218 219 218 214 255 291 313 327 331 337 340 341 338 334 336 339 340 333 323
63 77 70 70 146 194 187 176 177 146 243 271 321 66 79 320 320 284 265 75 280 305 347 270 240 289 175 55 3 0 3 7 8 10 25 18 12 14 11 13 5 344 318 303 277 255 238 233 231 229 227 227 229 229 228 229 232 233 233 236 237 239 238 238 236 233 233 230 231 234 235 233 231 231 232 234 230 223 218 223 227 230 262 282 292 305 311 331 339 337 335 334 338 344 347 339 325
54 81 79 42 182 182 178 180 194 167 302 275 320 51 95 320 317 305 306 14 330 324 311 295 312 299 51 21 11 17 25 29 35 43 44 34 24 16 5 357 355 347 328 305 285 278 258 244 237 233 231 230 230 230 229 227 228 231 234 238 238 241 240 236 236 237 236 234 235 237 240 240 237 235 234 238 236 223 216 224 232 238 258 266 272 291 299 321 331 331 333 333 336 345 351 346 330
80 114 71 259 203 203 193 175 192 194 212 255 295 44 110 235 275 349 327 302 342 348 305 342 338 315 26 14 16 30 38 43 46 48 45 38 29 20 9 360 356 350 337 314 283 271 267 256 243 238 234 231 231 231 232 228 227 227 228 237 242 244 243 238 239 242 239 232 234 237 238 241 242 242 242 244 241 224 224 234 234 242 252 257 265 279 294 315 324 327 333 334 332 340 350 350 339
136 117 81 244 213 229 223 190 200 205 194 261 294 53 82 234 214 355 310 291 330 331 284 344 335 321 11 7 17 29 38 42 43 44 41 34 29 22 12 4 358 354 347 332 306 276 263 258 250 244 237 232 230 229 232 230 229 229 224 227 237 244 245 245 243 244 245 238 237 241 237 238 243 245 248 251 245 229 235 243 239 249 250 249 260 262 285 309 318 326 331 334 331 333 344 349 345
139 117 158 218 187 237 221 199 213 210 195 205 252 356 317 243 177 171 154 307 318 278 271 304 318 341 9 360 16 26 33 36 35 36 33 27 23 19 15 9 3 359 354 344 323 292 264 253 250 244 238 233 229 225 229 229 228 231 229 224 228 234 236 243 249 249 251 250 248 250 245 244 244 246 253 254 246 234 239 245 245 253 251 249 247 240 285 307 314 328 329 330 329 328 337 344 346
123 133 185 188 151 255 235 195 214 187 155 168 243 315 296 164 140 175 163 242 296 337 347 30 32 33 37 18 21 25 29 30 29 29 26 22 18 15 14 13 11 9 5 357 343 320 277 250 245 239 235 231 229 225 224 228 227 229 234 231 229 232 232 238 250 250 248 250 248 249 247 244 240 245 259 252 239 241 248 245 245 248 250 256 247 238 282 299 308 331 333 328 325 324 332 337 342
145 294 262 214 177 231 243 177 208 163 122 211 231 276 316 29 330 192 159 215 324 19 28 66 61 62 60 44 36 29 28 27 26 25 21 19 16 13 12 12 13 11 10 6 358 345 315 261 239 233 229 226 230 229 225 226 224 226 232 236 236 238 239 241 248 250 250 248 245 251 249 241 239 243 252 244 236 256 264 246 239 242 249 256 244 238 270 282 297 332 339 330 321 319 330 332 335
101 248 291 248 181 223 239 155 195 172 202 242 222 338 298 316 297 221 104 52 37 38 49 64 61 58 55 48 40 33 32 28 26 24 24 22 17 16 14 15 16 13 12 11 10 5 353 309 242 229 224 222 229 230 226 227 224 223 226 229 235 234 236 241 248 262 268 250 239 256 256 240 235 235 239 241 241 263 271 253 239 245 257 255 239 231 250 262 289 328 335 330 316 313 328 328 328
105 215 264 120 200 246 267 292 268 231 242 240 119 289 250 205 200 69 53 51 45 47 48 48 53 51 45 42 36 32 32 28 22 21 23 22 20 22 22 21 21 20 16 13 15 16 14 3 270 228 222 214 222 230 224 225 226 224 226 233 238 234 239 240 235 255 270 254 242 256 260 244 233 231 240 241 239 252 261 253 250 260 266 255 239 236 246 254 286 317 327 324 309 311 324 323 323
201 185 222 245 276 291 298 281 270 246 243 148 170 278 284 214 161 79 46 59 59 54 49 37 45 48 43 40 35 33 33 27 19 18 20 22 23 23 23 23 24 24 18 16 20 21 23 26 30 203 218 196 192 223 222 218 223 224 225 232 239 246 270 274 256 256 253 257 276 275 269 261 242 233 242 248 241 250 250 239 247 261 266 256 243 249 255 257 279 302 314 309 301 315 318 318 322
184 163 223 246 289 302 268 252 274 280 253 175 210 276 315 294 40 101 29 36 65 62 49 32 48 50 43 41 37 36 35 29 21 21 21 20 22 19 18 22 24 26 23 23 28 27 32 41 48 74 115 164 167 187 206 206 211 218 217 216 238 248 279 308 285 276 259 263 295 292 278 271 251 239 251 259 244 243 246 234 241 259 266 263 253 259 258 252 265 284 298 296 298 311 309 318 323
115 115 281 289 322 301 272 286 290 296 264 180 182 245 323 351 38 85 354 20 66 75 54 32 45 40 34 39 37 37 34 29 27 27 23 15 15 14 15 19 21 28 31 31 36 37 43 52 55 67 74 103 143 155 171 182 182 189 190 189 235 241 259 313 305 285 292 294 301 300 296 286 268 260 267 266 243 234 242 233 241 262 269 266 261 263 253 245 260 279 289 292 300 305 306 320 319
108 48 331 307 347 330 317 350 302 298 289 171 158 259 346 32 84 360 353 49 69 65 53 29 37 29 29 34 35 39 32 29 30 28 23 17 17 18 19 21 23 30 37 42 48 50 53 58 61 66 71 86 112 128 135 136 141 142 130 148 140 104 180 315 24 65 311 325 322 304 302 294 278 265 263 266 248 249 268 253 255 267 274 273 263 257 247 248 268 280 282 285 298 302 307 317 312
277 39 43 313 352 334 313 6 317 332 124 258 101 291 310 36 210 324 339 268 68 53 41 25 26 22 26 29 33 37 30 28 29 26 23 23 23 24 24 28 33 34 40 49 55 60 64 68 72 75 78 87 98 108 115 110 116 120 109 123 123 99 107 82 67 61 330 2 350 328 317 306 291 265 251 254 249 256 274 267 264 265 273 278 268 258 256 269 282 282 281 284 293 294 297 306 306
317 360 48 358 358 289 296 339 335 10 73 353 87 234 270 216 252 336 342 297 101 73 41 30 22 24 26 25 33 30 28 29 28 27 26 27 27 29 30 32 39 42 46 53 57 64 72 78 82 85 89 94 100 106 111 107 103 101 96 97 95 91 88 81 78 74 68 68 66 59 36 11 357 326 304 279 265 268 266 261 270 271 271 272 269 266 267 277 282 282 284 286 288 286 289 296 300
26 332 309 345 145 272 306 335 7 102 12 19 101 206 282 194 244 341 356 32 94 91 54 42 29 28 32 24 32 26 21 25 27 27 25 28 29 30 34 36 42 46 52 58 64 71 76 82 87 89 93 97 101 105 107 105 100 95 91 87 85 84 82 80 79 78 75 72 68 63 53 48 46 33 19 8 355 7 7 355 343 325 308 292 280 276 272 273 277 280 282 282 283 284 288 293 297
359 73 251 275 200 279 321 340 351 11 59 15 58 209 288 180 221 333 13 50 81 92 63 45 40 33 39 31 31 28 19 19 20 20 21 26 30 33 38 42 46 52 58 64 71 76 79 84 89 89 89 93 98 101 103 102 100 96 94 89 86 83 80 80 79 78 77 74 71 69 68 64 61 60 54 50 56 51 36 24 16 11 3 352 337 319 306 296 290 285 280 278 279 280 283 289 297
311 36 230 250 221 232 311 313 342 18 86 36 22 130 265 228 144 358 14 54 81 87 67 50 52 40 42 37 35 31 24 24 13 10 15 24 32 40 45 48 54 59 64 70 75 80 84 87 92 92 91 92 94 97 99 99 99 96 95 91 88 84 81 81 80 78 75 74 75 74 73 69 66 66 65 65 65 63 62 55 41 37 34 31 27 15 1 348 334 322 310 301 297 293 292 296 303
191 180 198 250 248 223 265 267 287 6 31 347 348 306 268 260 117 42 10 47 83 88 79 63 53 43 43 37 38 33 27 29 13 9 18 28 35 43 49 54 59 64 69 74 79 85 89 91 96 98 97 96 94 94 94 97 96 93 92 92 87 81 79 78 77 75 73 72 73 72 70 69 68 69 69 69 68 67 67 64 61 56 49 48 51 51 45 32 18 5 353 343 332 326 322 319 319
171 175 156 188 233 243 238 243 261 323 23 283 269 261 267 271 316 41 9 39 77 84 69 58 47 43 41 36 35 31 33 24 9 17 27 34 40 45 51 57 61 67 71 75 80 86 88 93 99 100 100 100 98 95 93 93 92 88 87 87 82 77 76 75 73 72 71 69 69 68 67 68 69 70 70 71 71 70 69 67 66 63 58 57 57 55 48 40 38 36 29 19 11 11 1 351 348
136 140 144 186 219 263 252 246 290 326 147 261 247 247 266 271 309 3 340 31 59 54 53 51 44 45 37 38 33 23 29 16 15 29 35 39 44 50 54 60 66 70 72 74 79 82 84 90 97 96 97 101 100 97 95 92 89 86 84 83 79 76 75 74 72 71 71 71 70 69 68 68 67 67 67 68 69 70 71 70 69 67 64 61 60 60 58 54 51 49 46 37 29 29 26 17 7
119 153 186 232 219 251 256 233 309 345 185 267 41 296 269 267 339 353 356 51 44 19 55 57 43 51 38 37 30 16 11 5 23 29 32 38 45 51 57 61 66 67 67 72 77 80 83 88 91 92 95 100 98 97 97 93 91 89 86 85 83 80 77 76 74 73 73 73 71 70 70 69 68 68 67 65 65 65 66 66 65 64 63 61 63 64 61 58 53 50 47 41 36 32 32 26 16
153 153 170 253 227 254 283 287 336 13 179 256 22 321 266 269 33 16 30 65 62 26 63 64 53 62 44 38 28 14 12 9 20 21 24 34 42 51 58 61 65 67 69 75 79 82 86 88 90 93 96 99 100 101 100 97 95 93 91 89 87 83 80 78 78 77 75 73 72 72 71 71 71 71 70 67 67 65 64 64 62 60 58 57 58 56 52 49 45 43 41 38 36 34 35 31 25
190 167 171 239 211 180 272 283 326 15 114 240 334 309 276 152 46 30 43 82 92 59 65 62 62 71 56 59 47 25 24 16 17 12 18 31 41 50 56 60 66 71 74 77 81 84 85 88 92 97 100 100 101 102 102 101 100 98 95 92 91 89 85 84 83 79 76 74 73 73 72 72 72 72 72 70 70 69 67 66 64 62 61 58 55 54 51 48 45 43 40 38 36 35 36 34 31
230 204 203 225 203 203 231 264 315 2 27 8 118 317 301 204 210 283 33 85 83 41 59 58 40 61 66 74 61 39 35 19 16 8 11 27 40 49 57 64 69 72 74 78 83 85 86 89 94 100 103 105 105 105 105 106 105 103 102 99 96 92 86 84 81 76 75 75 73 73 73 73 74 73 73 71 70 69 67 66 65 64 63 60 57 57 55 52 49 46 43 40 40 38 36 34 31
272 227 211 217 212 210 218 54 31 22 352 323 86 318 294 301 252 200 193 150 42 13 47 57 12 37 61 68 56 34 34 22 27 27 23 34 47 57 65 70 73 75 77 82 88 91 92 93 96 101 106 108 110 110 111 111 110 109 106 100 94 88 81 77 76 76 75 76 75 74 74 74 74 73 73 72 70 69 68 67 66 64 63 62 60 60 58 56 51 48 45 41 42 40 36 37 31
271 242 205 207 199 180 173 139 112 132 242 300 63 161 251 312 312 189 167 137 61 336 19 306 280 39 83 102 70 36 27 16 30 37 41 49 57 64 67 72 77 80 84 89 94 97 98 98 98 100 103 106 109 111 114 114 110 106 102 96 91 88 85 81 80 81 80 80 79 78 76 74 73 73 73 72 71 70 69 68 67 65 65 63 61 61 60 58 56 54 51 46 44 39 35 40 35
235 245 155 162 170 172 171 154 159 209 234 327 7 136 199 290 292 201 147 133 98 244 233 247 235 212 199 172 110 103 49 355 31 35 43 57 66 70 73 78 84 88 93 96 98 100 103 103 102 102 102 103 106 108 109 108 105 102 99 97 93 91 91 88 86 84 83 83 81 78 76 75 73 72 72 71 71 70 69 67 66 65 64 62 61 60 59 59 58 57 55 53 50 45 42 44 40
242 201 120 134 149 156 146 136 162 235 53 301 296 147 186 263 269 334 128 167 232 226 214 212 208 209 202 189 180 155 230 283 108 78 64 76 84 86 88 91 95 98 99 100 101 102 104 105 105 105 103 103 104 104 104 102 102 102 101 99 96 94 93 92 89 86 84 82 79 76 75 73 72 71 70 69 68 67 66 65 64 62 61 60 59 58 57 55 53 52 52 52 51 51 49 46 44
193 126 96 80 75 83 94 114 124 70 85 240 243 188 189 268 275 271 136 225 234 212 202 199 197 204 202 192 183 176 196 243 181 161 141 121 114 109 107 106 105 105 104 104 104 104 105 106 106 104 102 102 102 102 102 102 102 102 101 100 99 96 94 92 90 85 81 78 76 73 70 69 68 67 66 65 64 63 62 61 60 59 58 57 56 55 53 51 49 48 46 46 47 47 47 45 44
143 114 78 60 43 43 49 62 91 73 273 246 238 212 179 260 273 232 187 222 201 169 166 181 195 205 205 201 187 183 186 193 220 184 152 140 130 125 120 116 112 111 110 109 107 106 106 106 106 104 103 103 103 103 102 102 102 101 100 99 98 96 94 91 86 81 77 75 72 69 67 65 64 62 61 60 59 57 56 55 53 53 51 50 48 47 46 45 44 43 42 41 40 39 39 37 36
114 97 94 90 14 12 26 359 45 120 251 257 267 250 165 205 261 245 215 234 180 162 168 174 187 199 199 198 191 190 192 193 217 203 163 147 138 135 129 121 118 116 113 111 110 110 109 109 108 107 105 105 104 103 102 101 100 98 97 96 94 91 88 85 81 77 73 70 68 66 63 61 59 57 55 53 51 48 47 47 46 45 42 40 39 37 36 35 34 34 33 32 31 31 30 28 26
90 99 112 113 2 11 4 305 278 218 246 272 286 180 171 229 249 232 202 212 215 205 185 176 182 187 188 192 189 187 189 193 201 200 182 162 149 144 136 128 124 120 117 115 114 114 113 113 112 110 107 106 105 103 101 99 97 95 94 92 90 87 84 81 78 75 71 68 65 62 58 56 53 50 48 46 43 39 38 38 36 36 34 32 30 27 26 24 22 22 22 21 20 20 20 18 17
163 152 139 137 112 83 254 262 271 257 251 291 296 202 183 264 266 224 186 203 226 227 224 199 187 183 183 183 179 182 190 196 201 200 194 178 164 155 145 136 131 126 122 121 120 120 118 117 115 113 111 109 107 104 102 99 96 94 93 91 89 86 83 79 76 73 70 65 61 58 55 52 49 46 43 41 37 33 32 31 29 28 26 24 22 20 18 16 15 14 14 14 12 11 11 9 7
185 175 134 146 154 158 211 217 210 238 254 303 305 238 185 205 262 260 218 267 288 253 239 228 207 187 169 162 167 182 194 198 201 202 200 189 175 164 154 145 138 133 130 127 126 125 123 121 119 117 115 112 109 106 103 100 98 96 93 91 88 85 82 79 75 71 67 63 58 55 52 49 46 43 39 35 31 28 27 25 23 21 19 17 15 13 12 10 9 8 8 7 6 4 4 2 0
222 132 108 162 186 151 156 187 173 172 262 279 246 231 221 189 217 301 314 306 303 295 232 197 200 180 151 161 182 191 201 201 199 200 202 195 184 174 165 155 147 140 136 133 131 130 128 125 123 119 117 115 111 108 105 102 101 98 95 92 88 84 79 76 72 68 64 60 55 51 48 44 41 37 33 29 25 22 20 18 17 16 14 12 10 9 7 6 5 3 2 2 360 358 357 357 356
153 132 174 219 183 118 114 205 101 86 229 254 190 219 276 304 253 302 9 315 281 294 224 189 185 171 163 184 196 198 205 201 198 199 198 195 189 183 174 163 155 148 143 139 137 136 134 131 128 124 120 118 114 111 108 106 104 101 97 93 88 83 77 73 69 65 60 54 50 45 40 36 32 28 24 20 18 15 14 13 12 11 9 7 6 4 3 2 0 360 358 357 356 353 353 353 352
124 179 210 196 120 92 108 189 14 52 234 266 205 203 224 160 224 302 46 258 243 220 206 186 178 177 184 196 200 204 206 198 199 199 198 199 195 188 180 170 162 155 149 145 142 140 138 135 132 129 125 123 119 116 114 111 108 105 101 96 90 83 77 72 67 61 54 47 43 38 32 28 25 21 17 14 12 10 9 7 6 5 4 2 1 360 359 358 357 356 355 354 353 350 349 349 348
128 195 195 113 140 162 100 163 195 198 233 282 282 224 218 192 201 199 197 219 218 199 189 192 191 189 193 200 203 206 203 193 197 197 199 203 199 192 183 175 167 160 154 149 146 144 142 139 137 134 130 128 127 125 122 118 114 109 105 102 94 86 78 71 64 56 46 39 36 30 26 23 20 15 11 9 7 5 5 3 2 1 360 358 357 356 355 355 354 353 352 351 350 349 347 346 345
58 85 99 69 150 168 153 163 167 183 215 278 293 271 239 225 200 183 197 206 193 179 187 200 199 195 196 198 199 201 198 193 196 197 199 200 198 194 186 178 171 164 159 154 151 150 148 146 144 141 138 136 135 132 128 124 120 115 112 107 100 90 79 67 56 44 32 29 27 22 19 17 12 8 7 4 3 1 0 359 358 356 355 353 353 352 352 351 350 350 349 348 346 345 344 343 341
118 128 167 186 105 123 192 224 122 136 175 210 279 283 255 245 202 185 201 207 187 181 186 194 198 199 201 201 199 197 194 195 198 196 195 195 196 196 189 181 173 166 163 160 159 157 155 154 152 148 146 145 143 141 137 132 128 126 120 112 105 92 75 56 41 30 23 21 18 14 13 11 6 3 3 2 0 359 357 356 354 352 351 350 350 350 349 349 348 347 346 345 343 342 341 339 338
158 176 190 186 172 132 176 252 190 110 182 182 212 274 264 247 202 184 197 206 192 187 184 188 196 199 202 205 202 197 195 198 201 195 188 190 194 195 190 184 177 173 170 168 166 165 163 161 158 155 153 152 151 150 147 143 140 138 129 118 108 86 63 40 26 20 16 14 11 9 8 5 2 1 0 359 358 358 356 355 354 352 351 351 350 350 349 349 348 346 345 344 343 341 339 337 336